West Palm Beach, FL

8:39 PM EST on November 17, 2019 (GMT -0500)
Palm Beach International

Weather History for KPBI - September, 2019

Change the Weather History Date:

Sunday, September 8, 2019

  Actual Average Record
Temperature  
Mean Temperature 84 °F 82 °F  
Max Temperature 90 °F 89 °F 94 °F (1911)
Min Temperature 78 °F 75 °F 65 °F (1921)
Degree Days  
Heating Degree Days 0 0  
Month to date heating degree days 0 0  
Since 1 July heating degree days 0 0  
Cooling Degree Days 19 17  
Month to date cooling degree days 151 136  
Year to date cooling degree days 3317 2842  
Growing Degree Days 34 (Base 50)    
Moisture  
Dew Point 75 °F    
Average Humidity 74    
Maximum Humidity 91    
Minimum Humidity 56    
Precipitation  
Precipitation 0.00 in 0.26 in 5.70 in (1952)
Month to date precipitation 0.09 2.24  
Year to date precipitation 44.05 42.96  
Snow  
Snow 0.00 in - - ()
Month to date snowfall 0.0  
Since 1 July snowfall 0.0  
Since 1 September snowfall 0.0  
Snow Depth 0.00 in    
Sea Level Pressure  
Sea Level Pressure 30.02 in    
Wind  
Wind Speed 8 mph (SSE)    
Max Wind Speed 17 mph    
Max Gust Speed 21 mph    
Visibility 10 miles    
Events      
T = Trace of Precipitation, MM = Missing Value Source: NWS Daily Summary

Daily Weather History Graph

Daily Weather History Graph

Search for Another Location

Airport or City:

Astronomy

Sep. 08, 2019 Rise Set
Actual Time 7:02 AM EDT 7:32 PM EDT
Civil Twilight 6:39 AM EDT 7:56 PM EDT
Nautical Twilight 6:12 AM EDT 8:23 PM EDT
Astronomical Twilight 5:44 AM EDT 8:51 PM EDT
Moon 4:13 PM EDT (9/8) 2:07 AM EDT (9/8)
Length of Visible Light 13h 16m
Length of Day
12h 29m
Waxing Gibbous, 75% of the Moon is Illuminated
Sep 8
Waxing Gibbous
Sep 14
Full
Sep 21
Last Quarter
Sep 28
New
Oct 5
First Quarter

Hourly Weather History & Observations

Time (EDT) Temp. Heat Index Dew Point Humidity Pressure Visibility Wind Dir Wind Speed Gust Speed Precip Events Conditions
12:53 AM 82.0 °F 88.6 °F 75.0 °F 79% 29.97 in 10.0 mi WSW 6.9 mph - N/A   Mostly Cloudy
1:53 AM 82.0 °F 89.4 °F 75.9 °F 82% 29.97 in 10.0 mi SW 6.9 mph - N/A   Mostly Cloudy
2:53 AM 81.0 °F 87.3 °F 75.9 °F 85% 29.98 in 10.0 mi West 5.8 mph - N/A   Mostly Cloudy
3:53 AM 81.0 °F 86.7 °F 75.0 °F 82% 29.97 in 10.0 mi WSW 4.6 mph - N/A   Mostly Cloudy
4:53 AM 80.1 °F 85.1 °F 75.0 °F 85% 29.98 in 10.0 mi WSW 3.5 mph - N/A   Mostly Cloudy
5:53 AM 80.1 °F 85.1 °F 75.0 °F 85% 30.00 in 10.0 mi WSW 3.5 mph - N/A   Partly Cloudy
6:53 AM 79.0 °F - 75.0 °F 88% 30.01 in 10.0 mi Calm Calm - N/A   Scattered Clouds
7:53 AM 81.0 °F 87.3 °F 75.9 °F 85% 30.04 in 10.0 mi Calm Calm - N/A   Scattered Clouds
8:53 AM 82.9 °F 90.8 °F 75.9 °F 79% 30.04 in 10.0 mi South 4.6 mph - N/A   Scattered Clouds
9:53 AM 84.9 °F 94.1 °F 75.9 °F 74% 30.04 in 10.0 mi South 3.5 mph - N/A   Scattered Clouds
10:53 AM 87.1 °F 94.5 °F 73.0 °F 63% 30.05 in 10.0 mi South 4.6 mph - N/A   Mostly Cloudy
11:53 AM 89.1 °F 95.0 °F 71.1 °F 55% 30.05 in 10.0 mi South 8.1 mph - N/A   Mostly Cloudy
12:53 PM 89.1 °F 98.0 °F 73.9 °F 61% 30.04 in 10.0 mi ESE 10.4 mph - N/A   Scattered Clouds
1:53 PM 90.0 °F 100.2 °F 75.0 °F 61% 30.03 in 10.0 mi ESE 11.5 mph - N/A   Scattered Clouds
2:53 PM 89.1 °F 99.1 °F 75.0 °F 63% 30.02 in 10.0 mi ESE 12.7 mph - N/A   Mostly Cloudy
3:53 PM 89.1 °F 99.1 °F 75.0 °F 63% 30.01 in 10.0 mi ESE 12.7 mph - N/A   Mostly Cloudy
4:53 PM 88.0 °F 96.5 °F 73.9 °F 63% 30.00 in 10.0 mi SE 13.8 mph - N/A   Mostly Cloudy
5:53 PM 88.0 °F 96.5 °F 73.9 °F 63% 30.00 in 10.0 mi SE 11.5 mph - N/A   Mostly Cloudy
6:53 PM 86.0 °F 93.8 °F 73.9 °F 67% 30.01 in 10.0 mi SE 12.7 mph - N/A   Mostly Cloudy
7:53 PM 84.9 °F 93.3 °F 75.0 °F 72% 30.02 in 10.0 mi SE 11.5 mph - N/A   Mostly Cloudy
8:53 PM 84.9 °F 93.3 °F 75.0 °F 72% 30.04 in 10.0 mi SE 11.5 mph - N/A   Mostly Cloudy
9:53 PM 84.0 °F 92.6 °F 75.9 °F 76% 30.06 in 10.0 mi SSE 8.1 mph - N/A   Mostly Cloudy
10:53 PM 84.0 °F 92.6 °F 75.9 °F 76% 30.06 in 10.0 mi SE 8.1 mph - N/A   Scattered Clouds
11:53 PM 84.0 °F 92.6 °F 75.9 °F 76% 30.07 in 10.0 mi SE 10.4 mph - N/A   Scattered Clouds